User: anonymous   Login
Location: Arrien
(42.8963°N, 1.0429°E)
Time: 18:39:10
(UTC+00:00)
Language:

Landsat 7 - Orbit

View from above orbital plane
View from above orbital plane
View from above satellite
View from above satellite

Ground track
Ground track

The orbit is defined by the following mean orbital elements,

1 25682U          26041.52563691 +.00000000 +00000-0 +11871-3 0 00007
2 25682  97.8602  50.9678 0001696  97.5352  15.5714 14.63786611    01
Epoch (UTC): 10 February 2026 12:36:55
Eccentricity: 0.0001696
inclination: 97.8602°
perigee height: 680 km
apogee height: 682 km
right ascension of ascending node: 50.9678°
argument of perigee: 97.5352°
revolutions per day: 14.63786611
mean anomaly at epoch: 15.5714°

The dashed part of the orbit path shows where the satellite is in the earth's shadow,  

DLR